Regional Weather Roundup
Issued by NWS

Home | Current Version | Previous Version | Text Only | Print | Product List | Glossary Off
Versions: 1 2 3 4 5 6 7 8 9 10 11 12 13 14 15 16 17 18 19 20 21 22 23 24 25 26 27

000
ASUS45 KBOI 160710
RWRID

IDAHO REGIONAL WEATHER ROUNDUP
NATIONAL WEATHER SERVICE BOISE ID
1200 AM MST TUE JAN 16 2018

NOTE: "FAIR" INDICATES FEW OR NO CLOUDS BELOW 12000 FEET
WITH NO SIGNIFICANT WEATHER AND/OR OBSTRUCTIONS TO VISIBILITY

IDZ012-014-160800-
SOUTHWEST IDAHO


CITY           SKY/WX    TMP DP  RH WIND       PRES   REMARKS
BOISE          MOCLDY    38  29  70 S9        30.21F WCI  31
CALDWELL       NOT AVBL
MOUNTAIN HOME  MOCLDY    38  34  84 SE15      30.22F WCI  29
$$

IDZ016-017-160800-
SOUTHCENTRAL IDAHO


CITY           SKY/WX    TMP DP  RH WIND       PRES   REMARKS
BURLEY         CLEAR     34  26  72 NE9G23    30.26S WCI  27
JEROME         CLEAR     35  24  64 NE24      30.24F WCI  23
TWIN FALLS     PTCLDY    32  28  85 E12       30.25F WCI  23
$$

IDZ019>023-160800-
SOUTHEAST IDAHO


CITY           SKY/WX    TMP DP  RH WIND       PRES   REMARKS
IDAHO FALLS    CLEAR     26  24  92 NW3       30.36F
POCATELLO      CLEAR     23  21  92 N3        30.33S
REXBURG        CLEAR     17  15  92 NE5       30.37S WCI  10
$$

IDZ006-010-011-018-031-032-160800-
CENTRAL IDAHO MOUNTAINS


CITY           SKY/WX    TMP DP  RH WIND       PRES   REMARKS
MCCALL         PTCLDY    22  19  89 W3        30.21S FOG
HAILEY         CLEAR     28  23  80 NW10      30.31S WCI  19
STANLEY        NOT AVBL
SALMON         CLOUDY    30  25  81 S10       30.39F WCI  21
CHALLIS        CLOUDY    25  23  92 E3        30.36F FOG
$$

IDZ002-004-006-007-026-160800-
NORTHERN IDAHO


CITY           SKY/WX    TMP DP  RH WIND       PRES   REMARKS
LEWISTON       PTCLDY    44  36  73 CALM      30.11R
LOWELL         NOT AVBL
COEUR D`ALENE  CLEAR     37  30  75 N20       30.14F WCI  27
MULLAN PASS    FOG       27  24  89 S13       30.15S VSB 1/2 WCI  16
$$




USA.gov is the U.S. government's official web portal to all federal, state and local government web resources and services.